Location: Agua Amarilla
(10.0342°N, 66.8490°W)
Time: 17:25:54
(UTC+00:00)

Cosmos 1603 - Pass Details

Date: 26 June 2022
Orbit: 829 x 861 km, 71.0° (Epoch: 08 August)

Event Time Altitude Azimuth Distance (km) Brightness Sun altitude
Rises 23:45:30 0° 186° (S) 3,370 6.6 -12.8°
Reaches altitude 10° 23:47:58 10° 182° (S) 2,440 5.9 -13.4°
Maximum altitude 23:53:26 55° 104° (ESE) 997 3.7 -14.6°
Drops below altitude 10° 23:58:55 10° 28° (NNE) 2,459 6.1 -15.8°
Sets 00:01:25 0° 24° (NNE) 3,398 6.9 -16.3°
